Texarkana, AR

7:39 AM CST on December 11, 2017 (GMT -0600)
Texarkana Regional-Webb

Weather History for KTXK - February, 2013

Change the Weather History Date:

Wednesday, February 20, 2013

  Actual Average Record
Temperature  
Mean Temperature 39 °F 50 °F  
Max Temperature 45 °F 60 °F 89 °F (1986)
Min Temperature 33 °F 39 °F 18 °F (1936)
Degree Days  
Heating Degree Days 26 16  
Month to date heating degree days 313 357  
Since 1 July heating degree days 1781 2079  
Cooling Degree Days 0 0  
Month to date cooling degree days 0 0  
Year to date cooling degree days 4 1  
Moisture  
Dew Point 30 °F    
Average Humidity 71    
Maximum Humidity 96    
Minimum Humidity 45    
Precipitation  
Precipitation 0.26 in 0.14 in 2.85 in (1961)
Month to date precipitation 1.49 2.77  
Year to date precipitation 5.16 6.17  
Snow  
Snow 0.00 in - - ()
Month to date snowfall 0.0  
Since 1 July snowfall 2.1  
Snow Depth 0.00 in    
Sea Level Pressure  
Sea Level Pressure 30.16 in    
Wind  
Wind Speed 8 mph (ENE)    
Max Wind Speed 17 mph    
Max Gust Speed 23 mph    
Visibility 9 miles    
Events Rain , Thunderstorm    
T = Trace of Precipitation, MM = Missing Value Source: NWS Daily Summary

Daily Weather History Graph

Daily Weather History Graph

Search for Another Location

Airport or City:

Trip Planner

Search our weather history database for the weather conditions in past years. The results will help you decide how hot, cold, wet, or windy it might be!

Date:

Astronomy

Feb. 20, 2013 Rise Set
Actual Time 6:54 AM CST 6:05 PM CST
Civil Twilight 6:29 AM CST 6:30 PM CST
Nautical Twilight 6:00 AM CST 6:59 PM CST
Astronomical Twilight 5:31 AM CST 7:28 PM CST
Moon 1:35 PM CST (2/20) 3:06 AM CST (2/20)
Length of Visible Light 12h 01m
Length of Day
11h 11m
Waxing Gibbous, 76% of the Moon is Illuminated
Feb 20
Waxing Gibbous
Feb 25
Full
Mar 4
Last Quarter
Mar 11
New
Mar 19
First Quarter

Hourly Weather History & Observations

Time (CST) Temp. Windchill Dew Point Humidity Pressure Visibility Wind Dir Wind Speed Gust Speed Precip Events Conditions
12:53 AM 44.1 °F - 25.0 °F 47% 30.24 in 10.0 mi Calm Calm - N/A   Clear
1:53 AM 45.0 °F 43.5 °F 26.1 °F 48% 30.24 in 10.0 mi ENE 3.5 mph - N/A   Scattered Clouds
2:53 AM 44.1 °F 40.8 °F 27.0 °F 51% 30.23 in 10.0 mi East 5.8 mph - N/A   Overcast
3:53 AM 44.1 °F 42.5 °F 28.9 °F 55% 30.25 in 10.0 mi East 3.5 mph - N/A   Overcast
4:53 AM 44.1 °F 41.5 °F 32.0 °F 63% 30.23 in 10.0 mi NE 4.6 mph - 0.00 in Rain Light Rain
6:53 AM 39.0 °F 36.8 °F 33.1 °F 79% 30.24 in 10.0 mi East 3.5 mph - 0.01 in   Clear
7:53 AM 37.9 °F 32.7 °F 30.9 °F 76% 30.21 in 10.0 mi East 6.9 mph 18.4 mph N/A   Scattered Clouds
8:53 AM 39.0 °F 34.0 °F 28.9 °F 67% 30.26 in 10.0 mi Variable 6.9 mph - N/A   Overcast
9:53 AM 39.0 °F 33.4 °F 28.9 °F 67% 30.24 in 10.0 mi East 8.1 mph 17.3 mph N/A   Overcast
10:53 AM 39.0 °F 31.8 °F 28.9 °F 67% 30.21 in 7.0 mi ENE 11.5 mph 21.9 mph 0.00 in Rain Light Rain
11:53 AM 39.0 °F 34.8 °F 28.0 °F 65% 30.32 in 10.0 mi Variable 5.8 mph - 0.01 in Rain Light Rain
12:53 PM 37.0 °F 29.8 °F 30.9 °F 79% 30.20 in 6.0 mi ENE 10.4 mph 16.1 mph 0.02 in Rain Rain
1:53 PM 37.0 °F 31.0 °F 33.1 °F 86% 30.15 in 10.0 mi ENE 8.1 mph - 0.02 in Rain Light Rain
2:53 PM 37.0 °F 29.8 °F 33.1 °F 86% 30.12 in 10.0 mi ENE 10.4 mph 18.4 mph 0.01 in   Overcast
3:53 PM 35.1 °F 26.4 °F 32.0 °F 89% 30.12 in 5.0 mi ENE 12.7 mph - 0.03 in Rain Rain
4:31 PM 33.8 °F 24.8 °F 33.8 °F 100% 30.12 in 10.0 mi ENE 12.7 mph 19.6 mph 0.02 in Rain Light Rain
4:53 PM 34.0 °F 25.0 °F 30.9 °F 89% 30.11 in 10.0 mi ENE 12.7 mph 21.9 mph 0.02 in   Overcast
5:14 PM 33.8 °F 25.3 °F 32.0 °F 93% 30.12 in 10.0 mi NE 11.5 mph 23.0 mph N/A Thunderstorm Overcast
5:31 PM 33.8 °F 25.3 °F 32.0 °F 93% 30.10 in 4.0 mi ENE 11.5 mph - 0.02 in Rain Rain
5:53 PM 34.0 °F 25.0 °F 33.1 °F 96% 30.11 in 10.0 mi ENE 12.7 mph 18.4 mph 0.04 in Rain Light Rain
7:53 PM 34.0 °F 26.0 °F 30.9 °F 89% 30.07 in 10.0 mi ENE 10.4 mph 17.3 mph 0.00 in Rain Light Rain
8:53 PM 33.1 °F 25.5 °F 30.9 °F 92% 30.06 in 10.0 mi East 9.2 mph - 0.01 in   Overcast
9:53 PM 33.1 °F 25.5 °F 30.9 °F 92% 30.04 in 10.0 mi ENE 9.2 mph 17.3 mph 0.00 in   Overcast
10:53 PM 33.1 °F 26.1 °F 30.0 °F 89% 30.04 in 10.0 mi East 8.1 mph - N/A   Overcast
11:53 PM 33.1 °F 26.1 °F 30.0 °F 89% 30.02 in 10.0 mi East 8.1 mph - N/A   Overcast